Retour au catalogue

THOR ABLESTAR DEB

ActifLEO
NORAD 402·DEBRIS·🇺🇸 United States

Lancé Jun 29, 1961 depuis Cape Canaveral Space Force Station

Loading…

Prochains Passages (prochaines 24 heures)

TLE

FraisSource: Space-Track

Époque: Sep 5, 2026, 17:39 UTC

1   402U 61015EB  26248.73549218  .00005249  00000-0  79684-3 0  9997
2   402  66.6519   4.8328 0031772 251.2834 108.4837 14.74539294353090

Suivez THOR ABLESTAR DEB en temps réel avec AllMySat

Download on the App Store